Regional Weather Roundup
Issued by NWS Wilmington, NC

Home | Current Version | Previous Version | Text Only | Print | Product List | Glossary On
Versions: 1 2 3 4 5 6 7 8 9 10 11 12 13 14 15 16 17 18 19 20 21 22 23 24 25 26 27 28 29 30 31 32 33 34 35 36 37 38 39 40 41 42 43 44 45 46 47 48 49 50
000
ASUS42 KILM 051210
RWRILM
RWRILM
REGIONAL HOURLY WEATHER ROUNDUP
NATIONAL WEATHER SERVICE WILMINGTON NC
700 AM EST THU MAR 05 2015

NOTE: "FAIR" INDICATES FEW OR NO CLOUDS BELOW 12,000 FEET WITH NO
SIGNIFICANT WEATHER AND/OR OBSTRUCTIONS TO VISIBILITY.

...............WFO WILMINGTON COUNTY WARNING AREA...............

......COASTAL NC AND SC COUNTIES......

CITY           SKY/WX    TMP DP  RH WIND       PRES   REMARKS
WILMINGTON     CLEAR     62  60  93 S10       29.98S
SOUTHPORT      FOG       56  56  99 SW8       30.00S VSB 1/2
N MYRTLE BEACH MOCLDY    54  53  97 SW14      29.99R FOG
MYRTLE BEACH   CLEAR     61  57  88 SW12      30.00R

......INLAND NC AND SC COUNTIES.......

CITY           SKY/WX    TMP DP  RH WIND       PRES   REMARKS
LUMBERTON      CLEAR     65  60  84 S9        29.92S
ELIZABETHTOWN  CLEAR     65  61  87 S6        29.94S
WHITEVILLE       N/A     61  59  94 S6        29.95S
FLORENCE       PTCLDY    64  60  87 S12       29.93S
DARLINGTON     CLEAR     64  59  82 SW13      29.93R

....................REST OF NORTH CAROLINA......................

.........EASTERN NC.........

CITY           SKY/WX    TMP DP  RH WIND       PRES   REMARKS
CAPE HATTERAS  FOG       59  59 100 SW14      29.96S VSB 1/2
JACKSONVILLE   CLEAR     63  57  82 S10       29.96R
MOREHEAD CITY  FOG       60  60 100 SW18G28   29.97S VSB 1/4
KENANSVILLE    CLEAR     64  61  90 S3        29.94R
NEW BERN       CLEAR     64  61  90 S10       29.95S
ELIZABETH CITY CLOUDY    48  46  93 N13       29.96R

.........CENTRAL NC.........

CITY           SKY/WX    TMP DP  RH WIND       PRES   REMARKS
RALEIGH DURHAM CLOUDY    63  58  83 W5        29.89R
ROCKY MOUNT    MOCLDY    63  60  90 SW3       29.90R
ROANOKE RAPIDS NOT AVBL
FAYETTEVILLE   MOCLDY    65  61  87 S12       29.91R
HOFFMAN        MOCLDY    64  61  88 SW13      29.94R

.........WESTERN NC.........

CITY           SKY/WX    TMP DP  RH WIND       PRES   REMARKS
CHARLOTTE      RAIN      64  61  90 S13       29.87R FOG
GREENSBORO     LGT RAIN  51  50  96 NE10      29.87F
HICKORY        NOT AVBL
BOONE          NOT AVBL
ASHEVILLE      NOT AVBL

.....................REST OF SOUTH CAROLINA.....................

.........EASTERN SC.........

CITY           SKY/WX    TMP DP  RH WIND       PRES   REMARKS
CHARLESTON     FOG       63  61  93 SW10      30.02R VSB 1/2
BEAUFORT MCAS  PTCLDY    64  62  93 S5        30.01R
HILTON HEAD    CLEAR     63  63 100 S7        30.04

.........CENTRAL SC.........

CITY           SKY/WX    TMP DP  RH WIND       PRES   REMARKS
COLUMBIA       MOCLDY    69  62  78 SW14G23   29.92R
ORANGEBURG     PTCLDY    63  59  87 S10       29.97R
SUMTER SHAW    MOCLDY    65  61  89 SW14      29.92

.........WESTERN SC.........

CITY           SKY/WX    TMP DP  RH WIND       PRES   REMARKS
GREENVILLE     NOT AVBL
ROCK HILL      LGT RAIN  64  62  93 SW13      29.88S
ANDERSON       LGT RAIN  65  63  93 S15G24    29.85F
CLEMSON        NOT AVBL
GREENWOOD      LGT RAIN  66  63  90 S17G24    29.90F FOG


...................COASTAL AND OFFSHORE REPORTS..................

................LOCAL PIERS AND NC RESERVE................


STATION/POSITION TIME  SKY/WX   TEMP    WIND        PRES    VSBY
                                AIR SEA DIR/SP/G
                 (UTC)          (F)     (DEG/KT/KT) (MB)    (MI)
JOHNY MRCER PIER 1200            62 50  220/ 13/ 16 1014.5S
NC RESRV MASNBRO 1100            63     230/  6     1015.0R
OCEAN CREST PIER 1200            53 49  230/ 10/ 15 1014.9S
SPRINGMAID  PIER 1200            50 46  190/  9/ 10 1015.5R


................COASTAL AND OFFSHORE BUOYS................


STATION/POSITION TIME  SKY/WX   TEMP    WIND        PRES    VSBY
                                AIR SEA DIR/SP/G
                 (UTC)          (F)     (DEG/KT/KT) (MB)    (MI)
DIMNDSHOAL 41025 NOT AVBL
CAPE LOOKOUT     1100            61     210/ 14/ 21 1014.9S
ONSLOW BAY 41036 NOT AVBL
5 WRITEBCH 41038 NOT AVBL
MASONBORO  41110 1200               47                N/A
WVE H/P(F/S)=  4/ 8 WND WVE H/P(F/S)=  5/ 8

WILM HARBR 41108 1200               49                N/A
WVE H/P(F/S)=  5/ 6 WND WVE H/P(F/S)=  5/ 6 SWL H/P/D(F/S/D)=  2/120/11

27WRITEBCH 41037 NOT AVBL
FRYING PAN 41013 1200            69 64  210/ 17/ 21 1016.2R
WVE H/P(F/S)=  7/ 7 WND WVE H/P(F/S)=  5/ 5 SWL H/P/D(F/S/D)=  5/170/ 7

SUNST NRSH 41024 1100            52     230/ 12/ 14   N/A
CAPRS NRSH 41029 1100            54     210/ 10/ 12   N/A
EDISTO     41004 1200            69 68  210/ 17/ 19 1015.9R
WVE H/P(F/S)=  6/ 7 WND WVE H/P(F/S)=  5/ 7 SWL H/P/D(F/S/D)=  3/10



..........OFFSHORE BUOYS BEYOND 100 NM OFFSHORE...........
.....IN A TRIANGLE---HAT TO BERMUDA TO BAHAMAS TO HAT.....


STATION/POSITION TIME  SKY/WX   TEMP    WIND        PRES    VSBY
                                AIR SEA DIR/SP/G
                 (UTC)          (F)     (DEG/KT/KT) (MB)    (MI)
150E HAT   41001 NOT AVBL
W BERMUDA  41048 1055            69 69  200/ 12/ 14 1023.4R
WVE H/P(F/S)=  4/11 WND WVE H/P(F/S)=  3/ 5 SWL H/P/D(F/S/D)=  3/100/11

ATLANTIC S 41049 1103            72 74   80/ 10/ 12 1026.0R
WVE H/P(F/S)=  6/10 WND WVE H/P(F/S)=  2/ 4 SWL H/P/D(F/S/D)=  7/ 40/10

E BAHAMAS  41046 1115            76 78   90/ 16/ 19 1022.9R
WVE H/P(F/S)=  6/10 WND WVE H/P(F/S)=  5/ 6 SWL H/P/D(F/S/D)=  5/ 70/10

NE BAHAMAS 41047 1125            73 73  140/ 10/ 12 1023.5R
WVE H/P(F/S)=  5/10 WND WVE H/P(F/S)=  2/ 5 SWL H/P/D(F/S/D)=  5/ 90/10

120E CANVRL41010 1200            74 74  170/ 16/ 17 1019.7R
WVE H/P(F/S)=  4/11 WND WVE H/P(F/S)=  3/ 5 SWL H/P/D(F/S/D)=  3/120/11


END



USA.gov is the U.S. government's official web portal to all federal, state and local government web resources and services.